Погода в Пинске

Погода в Пинске : погода сейчас, прогноз погоды и архив. Всё, что Вы хотите узнать о погоде в Пинске!

Хотите узнать прогноз погоды в Пинске? Тогда Вам сюда: Погода в Пинске

Поиск расширенной информации на нашем сайте:

Другие новости

Новости СМИ2

Главная страница сайта

Новости сайта

02.10.2013

Напоминаем, что на нашем новом сайте вы можете получить высокодетализированные прогнозы погоды по пунктам России, СНГ и мира (включающие важные для авиации метеовеличины, такие как направление и скорость ветра, видимость, явления погоды, количество и форма облачности, нижняя и верхняя граница облачности), а также ознакомиться с разнообразными материалами по авиационной метеорологии и подборкой полезных ссылок на эту тему.

Сайт Метеоцентр.Азия посвящён разработке технологий оптимизации авиаметеорологического обслуживания, включая проектирование и перспективное создание нескольких автоматизированных авиаметеорологических систем:
- система выпуска высокодетальных прогностических карт явлений погоды для нижнего воздушного пространства по России и ближнему зарубежью;
- система верификации прогнозов TAF (выпускаемых синоптиками официальных АМСГ РФ и ближнего зарубежья) и AUTOTAF (выпускаемых сайтом Метеоцентр.Азия) - выявление ошибок, онлайн-сопоставление с фактической погодой METAR, автоматическое внесение коррективов в прогнозы при резком отклонении фактической погоды от прогноза, подсчёт оправдываемости прогнозов по элементам и в целом;
- система обработки, анализа и отображения авиаметеорологической информации для применения провайдерами метеорологической информации.


Погода в Пинске - сегодня

Время (UTC), дата Ветер
(°,м/с) 
Видим.   Явления Облачность Т
(°С)
Тd
(°С)
f(%) Тe
(°С)
Pmin
(гПа)
dP
(гПа)
Po
(мм)
O2
(г/м3)
Тmin Tmax R s Состояние
почвы
15 21.06.17 320 (СЗ) 4{10}  30000 м    4/0 средняя 
[Ac trans]
+21.8 +6.4 37 +22  1010.4  -0.7  746  277           
18 21.06.17 300 (СЗ) 3{10}  10 км    4/0 верхняя 
[Ci fib]
+19.9 +5.7 39 +21  1010.9  0.3  746  279    +22.3       
21 21.06.17 290 (З) 10 км    ясно 
+15.3 +7.4 59 +16  1012.9  1.7  747  284           
00 22.06.17 310 (СЗ) 10 км    ясно 
+12.4 +6.8 69 +14  1013.4  0.3  747  287           
03 22.06.17 290 (З) 10 км    3/0 верхняя 
[Ci fib]
+10.8 +7.1 78 +12  1014.1  0.6  748  289           
06 22.06.17 330 (СЗ) 12000 м    10/0 верхняя 
[Ci fib]
+15.7 +10.2 70 +18  1014.6  0.8  748  283  +10.3         
09 22.06.17 300 (СЗ) 12000 м    9/4 1000 м средняя, верхняя 
[Cu hum|Ac trans|Ci fib]
+18.3 +5.3 42 +19  1014.3  -0.1  748  282           
12 22.06.17 240 (ЮЗ) 15000 м    8/6 1000 м верхняя 
[Cu hum|Ci fib]
+20.9 +5.9 38 +21  1013.5  -0.6  748  279           
15 22.06.17 280 (З) 12000 м    8/6 1000 м верхняя 
[Cu hum|Ci fib]
+21.6 +7.7 41 +22  1011.6  -1.9  746  277           
18 22.06.17 240 (ЮЗ) 10 км    9/0 средняя 
[Ac trans]
+20 +10 53 +21  1010.1  -1.5  745  278    +22.7       
21 22.06.17 280 (З) 10 км    9/0 средняя 
[Ac trans]
+18.5 +11.1 62 +23  1009.9  -0.3  745  279           
00 23.06.17 280 (З) 10 км    9/0 средняя 
[Ac trans]
+17 +11.7 71 +22  1008.9  -1.1  744  280           
03 23.06.17 300 (СЗ) 10 км    10/0 средняя, верхняя 
[Ac trans|Ci fib]
+15.5 +11.9 79 +21  1007.6  -1.4  743  281           
06 23.06.17 120 (ЮВ) 12000 м    10/0 средняя, верхняя 
[Ac trans|Ci fib]
+20.4 +10.9 54 +23  1006.2  -1  742  276  +15.3         
09 23.06.17 220 (ЮЗ) 10 км    10/10 600 м кучево-дожд. 
[Cb calv]
+20 +12.7 63 +25  1005.5  -0.8  742  276           
12 23.06.17 280 (З) 9000 м  слаб. ливневой дождь  10/10 300 м кучево-дожд. 
[Cb calv]
+17.1 +15.4 90 +28  1005.2  -0.4  742  278         
15 23.06.17 340 (С) 10 км  {ливн. осадки}  9/9 600 м 
[Sc]
+17.7 +15.3 86 +29  1004.3  -0.9  741  277         
18 23.06.17 360 (С) 9000 м  дымка{ливн. осадки}  10/10 600 м кучево-дожд. 
[Cb calv]
+17.5 +15.4 87 +29  1006.4  2.1  742  278    +21.3     
21 23.06.17 310 (СЗ) 6000 м  дымка  9/9 600 м 
[Sc]
+15.8 +14.7 93 +25  1007.9  1.3  743  280           
00 24.06.17 тихо ()   3700 м  дымка  6/0 средняя 
[Ac trans]
+13.7 +13.1 96 +19  1009.2  1.2  744  283           
03 24.06.17 тихо ()   3500 м  дымка{туман}  10/10 200 м 
[St]
+13.2 +12.9 98 +19  1009.4  0.1  744  284           
06 24.06.17 260 (З) 9000 м  дымка{туман}  10/10 300 м 
[St]
+16.4 +15.1 92 +26  1008.7  -0.4  744  280  +13.1         
09 24.06.17 230 (ЮЗ) 3600 м  ливневой дождь  10/10 200 м кучево-дожд. 
[Cb calv]
+16.6 +16.1 97 +28  1007.8  -0.9  743  279         
12 24.06.17 260 (З) 3{10}  10 км  {ливн. осадки}  10/10 300 м 
[St]
+19.4 +14.3 72 +28  1008.2  0.6  744  277         
15 24.06.17 280 (З) 10 км    9/9 600 м 
[Sc]
+19.4 +14.4 73 +28  1009.2  0.9  745  277         
Время (UTC), дата Ветер
(°,м/с) 
Видим.   Явления Облачность Т
(°С)
Тd
(°С)
f(%) Тe
(°С)
Pmin
(гПа)
dP
(гПа)
Po
(мм)
O2
(г/м3)
Тmin Tmax R s Состояние
почвы

Для получения пояснительной информации подведите курсор к названию столбца.

ПОГОДА в Пинске - архив

Всё, что Вы хотите узнать о погоде в Пинске - удобно и подробно!

Выберите нужную дату (начиная с 1 января 2015* года) и нажмите кнопку "Найти".
Будут отображены архивные сводки погоды по пункту Пинск, начиная с указанной даты.


Отображать данные в формате CSV (для использования в таблицах Excel)


Внимание! Наш архив погоды предназначен исключительно для личного некоммерческого использования в познавательных целях. Если Вам необходимы официальные справки о состоянии погоды (для производственных, юридических, коммерческих и т.п. целей), обращайтесь в органы Росгидромета.

*Примечание: данная дата относится к архиву по метеостанциям СССР (Россия, СНГ, Балтия).
Архив по метеостанциям Зарубежной Европы и Азии (кроме Китая) хранится 10 дней, по другим регионам земного шара (Китай, Африка, Америка, Австралия, Океания) - 1 день.

Пинск - район местоположения метеостанции


Название, широта, долгота, высота метеостанции:
Пинск 52.1°ш. 26.1°д. 142 м над ур. моря [Беларусь]

Дополнительная информация

В oтличие oт бoльшинства пoгoдных сайтoв мы публикуем пoдрoбную метеoинфoрмацию в детальнoм прoфессиoнальнoм фoрмате.

Характеристики температуры и влажнoсти вoздуха измеряются на высoте 2 м в тени вдали oт зданий и деревьев.
Скoрoсть ветра измеряется на высoте 10 м (на урoвне рoста челoвека скoрoсть ветра ниже в 1.5-2 раза). Если метеoстанция нахoдится в гoрoде или в лесу, тo скoрoсть ветра занижена на 2-4 м/с пo сравнению с oткрытым местoм. Скoрoсть ветра над акватoриями крупных рек и oзёр, а также на вершинах хoлмoв на 2-5 м/с выше, чем в oбычных услoвиях.
Атмoсфернoе давление в разных тoчках местнoсти мoжет значительнo oтличаться oт давления на метеoстанции, в зависимoсти oт услoвий рельефа (при пoдъёме на 10 м давление пoнижается примернo на 1 мм рт.ст.).